This demonstration page uses our WeatherBlox Daily Observations layout. Learn more.

Hourly Observations for August 2, 2020

Temp ( °F °C ) Dew Point ( °F °C ) Humidity (%) Winds ( mph kmh ) Pressure ( in mb ) Visibility ( mi km ) Precip ( " mm )
12:15 am 00:15 Mostly Cloudy 77 25 73 23 89 89 SSE 7 11 29.9 1013 10 16.0934 0 0
12:35 am 00:35 Cloudy 77 25 73 23 89 89 S 9 15 29.9 1013 10 16.0934 0 0
12:55 am 00:55 Cloudy 77 25 73 23 89 89 SSE 10 17 29.89 1012 10 16.0934 0 0
1:15 am 01:15 Cloudy 77 25 73 23 89 89 S 8 13 29.89 1012 10 16.0934 0 0
1:35 am 01:35 Cloudy 75 24 73 23 94 94 SSE 10 17 29.9 1012 10 16.0934 0 0
1:55 am 01:55 Cloudy 75 24 73 23 94 94 SSE 10 17 29.89 1012 10 16.0934 0 0
2:15 am 02:15 Cloudy 75 24 73 23 94 94 S 9 15 29.89 1012 10 16.0934 0 0
2:35 am 02:35 Cloudy 75 24 73 23 94 94 S 9 15 29.89 1012 10 16.0934 0 0
2:55 am 02:55 Cloudy with Nearby Thunderstorms 73 23 73 23 100 100 S 9 15 29.88 1012 10 16.0934 0 0
3:15 am 03:15 Cloudy with Nearby Thunderstorms 73 23 73 23 100 100 S 10 17 29.87 1011 10 16.0934 0 0
3:35 am 03:35 Mostly Cloudy 73 23 73 23 100 100 S 7 11 29.87 1011 10 16.0934 0 0
3:55 am 03:55 Mostly Cloudy 73 23 73 23 100 100 S 10 17 29.87 1011 10 16.0934 0 0
4:15 am 04:15 Cloudy 73 23 73 23 100 100 S 7 11 29.87 1011 10 16.0934 0 0
4:35 am 04:35 Cloudy 73 23 72 22 94 94 S 7 11 29.87 1011 10 16.0934 0 0
4:55 am 04:55 Cloudy 73 23 72 22 94 94 S 8 13 29.87 1011 10 16.0934 0 0
5:15 am 05:15 Cloudy 73 23 72 22 94 94 S 7 11 29.87 1011 10 16.0934 0 0
5:35 am 05:35 Cloudy 73 23 72 22 94 94 SSW 7 11 29.87 1011 10 16.0934 0 0
5:55 am 05:55 Cloudy 72 22 72 22 100 100 S 5 7 29.88 1012 10 16.0934 0 0
6:15 am 06:15 Cloudy 72 22 72 22 100 100 S 6 9 29.89 1012 10 16.0934 0 0
6:35 am 06:35 Cloudy 72 22 72 22 100 100 S 6 9 29.89 1012 10 16.0934 0 0
6:55 am 06:55 Cloudy 72 22 72 22 100 100 SSW 7 11 29.89 1012 10 16.0934 0 0
7:15 am 07:15 Cloudy 72 22 72 22 100 100 S 6 9 29.89 1012 10 16.0934 0 0
7:35 am 07:35 Cloudy 72 22 72 22 100 100 S 8 13 29.9 1012 10 16.0934 0 0
7:55 am 07:55 Cloudy 73 23 72 22 94 94 S 8 13 29.9 1012 10 16.0934 0 0
8:15 am 08:15 Cloudy 73 23 72 22 94 94 SSW 8 13 29.91 1013 10 16.0934 0 0
8:35 am 08:35 Cloudy 73 23 72 22 94 94 S 8 13 29.9 1012 10 16.0934 0 0
8:55 am 08:55 Mostly Cloudy 77 25 72 22 83 83 S 8 13 29.89 1012 10 16.0934 0 0
9:15 am 09:15 Mostly Cloudy 77 25 72 22 83 83 SSW 7 11 29.89 1012 10 16.0934 0 0
9:35 am 09:35 Mostly Cloudy 77 25 72 22 83 83 S 8 13 29.9 1013 10 16.0934 0 0
9:55 am 09:55 Mostly Cloudy 77 25 72 22 83 83 S 8 13 29.9 1013 10 16.0934 0 0
10:15 am 10:15 Cloudy 79 26 72 22 79 79 SSE 9 15 29.9 1013 10 16.0934 0 0
10:35 am 10:35 Mostly Cloudy 81 27 73 23 79 79 S 9 15 29.9 1013 10 16.0934 0 0
10:55 am 10:55 Mostly Cloudy 81 27 73 23 79 79 SSW 13 20 29.91 1013 10 16.0934 0 0
11:15 am 11:15 Partly Cloudy 82 28 73 23 74 74 SSW 12 19 29.9 1013 10 16.0934 0 0
11:35 am 11:35 Partly Cloudy 84 29 73 23 70 70 S 10 17 29.9 1012 10 16.0934 0 0
11:55 am 11:55 Mostly Cloudy 84 29 73 23 70 70 S 13 20 29.89 1012 10 16.0934 0 0
12:15 pm 12:15 Mostly Cloudy 86 30 73 23 66 66 S 13 20 29.89 1012 10 16.0934 0 0
12:35 pm 12:35 Mostly Cloudy 88 31 73 23 62 62 SSW 10 17 29.88 1012 10 16.0934 0 0
12:55 pm 12:55 Mostly Cloudy 88 31 72 22 59 59 SSW 15 24 29.88 1012 10 16.0934 0 0
1:15 pm 13:15 Mostly Cloudy 88 31 72 22 59 59 SW 8 13 29.88 1012 10 16.0934 0 0
1:35 pm 13:35 Mostly Cloudy 88 31 72 22 59 59 SSW 13 20 29.88 1012 10 16.0934 0 0
1:55 pm 13:55 Partly Cloudy 90 32 72 22 55 55 WSW 8 13 29.88 1012 10 16.0934 0 0
2:15 pm 14:15 Partly Cloudy 90 32 72 22 55 55 S 8 13 29.87 1011 10 16.0934 0 0
2:35 pm 14:35 Mostly Cloudy 90 32 72 22 55 55 SW 10 17 29.87 1011 10 16.0934 0 0
2:55 pm 14:55 Cloudy 88 31 73 23 62 62 WSW 7 11 29.87 1011 10 16.0934 0 0
3:15 pm 15:15 Mostly Cloudy 90 32 73 23 59 59 S 14 22 29.86 1011 10 16.0934 0 0
3:35 pm 15:35 Partly Cloudy 91 33 73 23 56 56 SW 15 24 29.85 1011 10 16.0934 0 0
3:55 pm 15:55 Sunny 90 32 72 22 55 55 SSW 15 24 29.86 1011 10 16.0934 0 0
4:15 pm 16:15 Sunny 91 33 72 22 52 52 SW 16 26 29.85 1011 10 16.0934 0 0
4:35 pm 16:35 Partly Cloudy 91 33 72 22 52 52 SSW 10 17 29.84 1011 10 16.0934 0 0
4:55 pm 16:55 Partly Cloudy 90 32 72 22 55 55 SSW 12 19 29.86 1011 10 16.0934 0 0
5:15 pm 17:15 Mostly Cloudy 90 32 72 22 55 55 SSW 14 22 29.85 1011 10 16.0934 0 0
5:35 pm 17:35 Partly Cloudy 90 32 70 21 52 52 SW 15 24 29.86 1011 10 16.0934 0 0
5:55 pm 17:55 Partly Cloudy 90 32 70 21 52 52 SW 9 15 29.86 1011 10 16.0934 0 0
6:15 pm 18:15 Partly Cloudy 90 32 70 21 52 52 SW 8 13 29.86 1011 10 16.0934 0 0
6:35 pm 18:35 Mostly Cloudy 90 32 72 22 55 55 SSW 9 15 29.86 1011 10 16.0934 0 0
6:55 pm 18:55 Partly Cloudy 88 31 72 22 59 59 SW 7 11 29.87 1011 10 16.0934 0 0
7:15 pm 19:15 Sunny 88 31 72 22 59 59 SW 9 15 29.87 1011 10 16.0934 0 0
7:35 pm 19:35 Sunny 86 30 72 22 62 62 SSW 6 9 29.87 1011 10 16.0934 0 0
7:55 pm 19:55 Sunny 86 30 72 22 62 62 SSW 7 11 29.88 1012 10 16.0934 0 0
8:15 pm 20:15 Sunny 84 29 72 22 66 66 SW 6 9 29.88 1012 10 16.0934 0 0
8:35 pm 20:35 Clear 82 28 72 22 70 70 SW 6 9 29.89 1012 10 16.0934 0 0
8:55 pm 20:55 Clear 82 28 72 22 70 70 SW 5 7 29.89 1012 10 16.0934 0 0
9:15 pm 21:15 Clear 82 28 72 22 70 70 SW 3 6 29.9 1013 10 16.0934 0 0
9:35 pm 21:35 Clear 81 27 72 22 74 74 SW 3 6 29.91 1013 10 16.0934 0 0
9:55 pm 21:55 Clear 81 27 72 22 74 74 SW 6 9 29.91 1013 10 16.0934 0 0
10:15 pm 22:15 Clear 79 26 72 22 79 79 WNW 12 19 29.93 1014 10 16.0934 0 0
10:35 pm 22:35 Clear 79 26 72 22 79 79 WNW 6 9 29.94 1014 10 16.0934 0 0
10:55 pm 22:55 Clear 79 26 70 21 74 74 NW 6 9 29.95 1014 10 16.0934 0 0
11:15 pm 23:15 Clear 79 26 68 20 70 70 NW 5 7 29.95 1014 10 16.0934 0 0
11:35 pm 23:35 Clear 79 26 68 20 70 70 NW 8 13 29.95 1014 10 16.0934 0 0
11:55 pm 23:55 Clear 79 26 64 18 61 61 N 6 9 29.96 1015 10 16.0934 0 0

Powered by AerisWeather